This demonstration page uses our WeatherBlox Daily Observations layout. Learn more.

Left ArrowRight Arrow

Hourly Observations for June 2, 2017

Temp ( °F °C ) Dew Point ( °F °C ) Humidity (%) Winds ( mph kmh ) Pressure ( in mb ) Visibility ( mi km ) Precip ( " mm )
12:53 am 00:53 Clear 56 13.3 55 12.8 97 97 SW 10 17 29.72 1006 10 16 0.00 0.00
1:53 am 01:53 Clear 57 13.9 54 12.2 90 90 SSW 13 20 29.72 1007 10 16 0.00 0.00
2:53 am 02:53 Clear 55 12.8 54 12.2 96 96 SSW 10 17 29.73 1007 10 16 0.00 0.00
3:53 am 03:53 Partly Cloudy 57 13.9 52 11.1 83 83 SW 13 20 29.74 1007 10 16 0.00 0.00
4:53 am 04:53 Clear 54 12.2 51 10.6 90 90 SW 9 15 29.76 1008 10 16 0.00 0.00
5:53 am 05:53 Sunny 53 11.7 50 10 89 89 SW 10 17 29.78 1008 10 16 0.00 0.00
6:53 am 06:53 Sunny 55 12.8 49 9.4 80 80 WSW 13 20 29.80 1009 10 16 0.00 0.00
7:53 am 07:53 Partly Cloudy 60 15.6 48 8.9 65 65 SW 22 35 29.83 1010 10 16 0.00 0.00
8:53 am 08:53 Sunny 64 17.8 47 8.3 54 54 WSW 22 35 29.85 1011 10 16 0.00 0.00
9:53 am 09:53 Sunny 70 21.1 41 5 35 35 W 26 43 29.84 1011 10 16 0.00 0.00
10:53 am 10:53 Sunny 72 22.2 41 5 33 33 WSW 28 44 29.85 1011 10 16 0.00 0.00
11:53 am 11:53 Mostly Sunny 73 22.8 38 3.3 28 28 WSW 23 37 29.85 1011 10 16 0.00 0.00
12:53 pm 12:53 Partly Cloudy 77 25 38 3.3 24 24 W 23 37 29.85 1011 10 16 0.00 0.00
1:53 pm 13:53 Sunny 77 25 37 2.8 24 24 W 26 43 29.84 1011 10 16 0.00 0.00
2:53 pm 14:53 Sunny 77 25 36 2.2 23 23 W 28 44 29.85 1011 10 16 0.00 0.00
3:53 pm 15:53 Sunny 76 24.4 36 2.2 23 23 WSW 26 43 29.85 1011 10 16 0.00 0.00
4:53 pm 16:53 Sunny 77 25 36 2.2 23 23 WSW 25 41 29.86 1011 10 16 0.00 0.00
6:53 pm 18:53 Sunny 75 23.9 37 2.8 25 25 WSW 21 33 29.85 1011 10 16 0.00 0.00
7:53 pm 19:53 Sunny 75 23.9 34 1.1 22 22 W 22 35 29.85 1011 10 16 0.00 0.00
8:53 pm 20:53 Sunny 70 21.1 35 1.7 28 28 W 15 24 29.86 1011 10 16 0.00 0.00
9:53 pm 21:53 Clear 60 15.6 36 2.2 41 41 WSW 13 20 29.90 1012 10 16 0.00 0.00
10:53 pm 22:53 Clear 59 15 37 2.8 44 44 NW 8 13 29.93 1014 10 16 0.00 0.00
11:53 pm 23:53 Clear 54 12.2 37 2.8 53 53 WSW 7 11 29.96 1015 10 16 0.00 0.00

Powered by AerisWeather